Retour au catalogue

IRIDIUM 33 DEB

ActifPO
NORAD 33850·DEBRIS·🇺🇸 United States

Lancé Sep 14, 1997 depuis Baikonur Cosmodrome

Loading…

Prochains Passages (prochaines 24 heures)

TLE

FraisSource: Space-Track

Époque: Sep 14, 2026, 00:28 UTC

1 33850U 97051T   26257.01975066  .00000588  00000-0  17019-3 0  9999
2 33850  86.3350 271.7404 0010941 351.0120  38.3806 14.42833967921218

Suivez IRIDIUM 33 DEB en temps réel avec AllMySat

Download on the App Store